Home > Weather > Danmarkshavn > Past weeks

Flag for Greenland Weather for the Past 2 Weeks in Danmarkshavn, Greenland

Now
-11 °F

Fog.


Feels Like: -35 °F
Forecast: -12 / -8 °F
Wind: 18 mph from Northwest

Location: Danmarkshavn

Current Time: Feb 7, 2016 at 9:36:49 AM

Latest Report: Feb 7, 2016 at 9:00 AM


Visibility: 3 mi

Pressure: 29.82 "Hg

Humidity: 71%

Dew point: -18 °F

Location of DanmarkshavnLocation

Historic Weather in Danmarkshavn — Graph

°F

Danmarkshavn Temperature Yesterday

Maximum temperature yesterday: -10 °F (at 1:00 AM)
Minimum temperature yesterday: -24 °F (at 5:00 AM)
Average temperature yesterday: -17 °F

High & Low Weather Summary for the Past Weeks

 TemperatureHumidityPressure
High30 °F (Jan 26, 10:00 AM)95% (Jan 26, 9:00 AM)30.28 "Hg (Jan 26, 9:00 AM)
Low-24 °F (Feb 6, 5:00 AM)45% (Feb 4, 11:00 AM)29.00 "Hg (Jan 26, 6:00 AM)
Average5 °F74%29.66 "Hg
* Reported Jan 23 8:00 AM — Feb 7 8:00 AM, Danmarkshavn, Weather by CustomWeather, © 2016

Note: Actual official high and low records may vary slightly from our data, if they occured in-between our weather recording intervals... More about our weather records

Advertising

Danmarkshavn Weather History for the Previous 24 Hours

 ConditionsComfort  
Time TempWeatherWind HumidityBarometerVisibility
8:00 AM
Sun, Feb 7
-14 °FPassing clouds.9 mph73%29.84 "Hg28 mi
7:00 AM-11 °FOvercast.7 mph71%29.84 "Hg25 mi
6:00 AM-11 °FOvercast.6 mph71%29.84 "Hg22 mi
5:00 AM-12 °FOvercast.6 mph73%29.85 "Hg16 mi
4:00 AM-11 °FOvercast.5 mph73%29.87 "Hg22 mi
8:00 PM
Sat, Feb 6
-12 °FSnow flurries. Overcast.9 mph72%29.94 "Hg25 mi
7:00 PM-13 °FSnow flurries. Cloudy.9 mph71%29.96 "Hg8 mi
6:00 PM-13 °FOvercast.7 mph69%29.96 "Hg22 mi
5:00 PM-14 °FPartly sunny.9 mph68%29.96 "Hg31 mi
4:00 PM-15 °FPartly sunny.7 mph67%29.96 "Hg31 mi
3:00 PM-13 °FPartly sunny.6 mph64%29.96 "Hg31 mi
2:00 PM-15 °FPartly sunny.10 mph64%29.96 "Hg31 mi
1:00 PM-15 °FPassing clouds.10 mph64%29.96 "Hg31 mi
12:00 PM-16 °FScattered clouds.13 mph64%29.96 "Hg31 mi
11:00 AM-15 °FSunny.10 mph64%29.96 "Hg31 mi
10:00 AM-23 °FSunny.1 mph72%29.96 "Hg31 mi
9:00 AM-22 °FSunny.1 mph73%29.95 "Hg31 mi
Weather by CustomWeather, © 2016

See weather overviewHow to use our weather pages